Location: Arcones
(41.1182°N, 3.7238°W)
Time: 03:25:09
(UTC+00:00)

Cosmos 2263 Rocket - Pass Details

Date: 20 March 2026
Orbit: 823 x 846 km, 71.0° (Epoch: 17 April)

Event Time Altitude Azimuth Distance (km) Brightness Sun altitude
Rises 20:39:09 0° 348° (NNW) 3,395 5.8 -25.0°
Reaches altitude 10° 20:42:28 10° 8° (N) 2,452 4.8 -25.6°
Enters shadow 20:45:07 17° 35° (NE) 2,001 4.0 -26.0°
